Wind_Speed
61 60 58 51 52 50 44 40 40 41 44 48 43 40 40 39 38 36 29 29 33 34 31 33 35 34 34 31 31 30 29 33 34 34 33 31 30 30 30 32 34 37 37 42
69 66 62 58 58 53 47 45 44 45 45 49 51 49 44 46 44 43 41 35 34 36 37 37 38 39 39 36 36 36 36 34 34 35 36 36 34 34 35 34 34 35 37 40
71 69 69 67 58 55 54 49 49 50 51 53 49 54 49 52 50 49 47 44 39 38 41 42 41 42 43 43 43 43 42 40 38 36 36 37 39 37 38 40 41 41 40 42
77 78 75 63 63 62 61 57 56 57 56 56 53 54 56 55 53 51 51 49 45 42 43 45 45 45 46 47 46 48 49 46 44 39 39 38 38 38 40 41 43 44 46 46
87 82 76 72 69 69 63 63 60 62 61 60 58 59 60 57 59 55 55 54 51 47 47 48 48 50 51 52 51 52 54 54 52 48 46 44 42 40 40 43 45 47 48 50
89 87 83 73 76 73 72 70 66 68 65 65 61 61 61 60 61 61 60 58 56 54 52 53 51 52 55 58 56 58 58 60 59 58 58 57 56 56 57 54 52 53 55 55
87 88 83 78 84 82 81 68 73 71 72 67 66 63 62 61 65 67 68 62 61 58 58 57 56 56 57 61 61 61 63 63 65 66 67 66 65 62 61 62 63 62 58 60
83 86 86 88 86 84 85 76 74 73 75 70 67 67 66 64 67 71 71 67 67 64 62 62 60 59 61 62 64 64 65 66 68 68 72 71 71 70 66 63 63 63 65 64
83 84 90 91 91 87 84 78 77 78 77 75 73 69 69 69 70 72 75 72 74 72 68 68 66 66 68 68 67 68 70 70 71 71 74 75 71 68 67 69 71 68 66 65
84 88 89 87 89 86 86 83 79 79 78 76 75 72 74 74 73 74 75 75 77 78 77 75 74 73 73 73 72 70 73 78 76 75 77 73 75 76 73 73 74 74 76 76
84 79 84 87 86 85 84 83 82 81 80 80 78 79 77 76 74 75 77 79 81 83 82 82 81 79 77 75 76 77 78 81 80 77 75 77 81 81 81 81 81 81 85 84
76 83 87 77 80 82 82 83 84 83 82 81 80 79 78 76 78 78 80 83 86 85 85 85 84 83 81 77 79 77 77 84 84 87 85 84 83 83 87 88 89 89 91 89
52 68 72 72 78 78 79 81 83 84 84 83 81 81 80 81 83 86 88 87 86 85 83 83 82 85 82 78 76 71 81 96 86 88 97 92 91 91 91 89 84 82 81 82
75 67 67 68 66 69 71 73 76 78 80 82 83 85 87 87 87 85 84 83 82 81 80 78 82 84 86 88 85 83 84 89 88 89 91 91 87 83 81 80 78 76 74 73
68 63 66 65 61 58 59 62 64 67 69 72 74 76 76 76 77 76 76 76 76 75 77 76 80 83 87 87 85 86 86 87 89 88 81 80 78 74 68 64 63 62 59 56
63 59 59 58 56 58 59 59 60 59 62 64 66 67 68 68 69 70 71 71 72 74 75 75 75 77 80 81 83 86 85 78 78 77 71 64 59 54 48 49 52 50 47 43
53 49 49 48 50 52 54 55 52 52 53 56 60 63 65 66 68 69 69 69 70 69 70 73 76 75 77 75 72 74 74 70 64 58 57 58 56 53 44 45 46 43 39 31
50 50 49 49 50 50 51 53 54 57 59 58 59 61 62 62 62 62 63 65 66 68 68 69 67 63 65 67 64 61 61 63 62 61 59 59 56 50 44 41 40 35 30 21
52 54 54 52 52 51 53 54 56 58 58 58 57 58 58 59 60 61 62 60 57 55 53 57 58 57 53 54 55 60 63 64 66 65 62 61 55 48 43 38 36 30 24 22
39 40 42 45 46 48 50 51 51 51 51 51 52 54 53 51 49 47 47 47 51 50 49 49 47 46 48 52 56 61 64 66 65 62 58 55 51 47 36 30 30 25 22 15
37 39 41 42 40 39 41 43 44 44 44 42 41 41 41 42 44 44 45 43 49 43 40 42 43 46 49 52 54 58 60 56 49 41 36 35 35 32 30 27 24 20 15 13
30 30 32 33 33 33 33 34 35 36 36 37 39 40 40 41 41 38 34 30 35 36 39 40 44 45 46 48 51 52 45 35 31 27 21 17 17 18 18 19 17 16 14 16
22 24 25 26 28 29 32 33 34 36 37 38 39 39 34 27 27 28 31 34 36 38 40 41 42 42 45 44 46 37 30 24 22 21 17 11 5 6 10 12 14 14 15 16
21 20 21 24 25 25 25 28 28 24 20 17 18 20 24 25 28 34 35 41 39 40 40 39 40 42 41 40 34 21 22 19 19 22 13 10 6 6 10 13 13 14 15 14
19 19 20 23 20 16 14 15 16 18 18 19 24 30 33 35 33 38 40 39 41 42 39 40 42 39 36 35 24 16 19 19 13 14 12 9 8 8 12 14 14 15 16 17
10 10 10 9 10 13 18 22 24 26 30 35 39 38 38 39 38 40 43 43 43 44 43 42 41 38 34 30 21 15 16 19 14 11 11 8 9 9 9 10 13 16 18 20
9 9 9 9 11 14 18 21 24 28 32 32 38 41 43 45 46 47 48 48 50 49 45 43 42 39 31 27 25 25 22 24 23 19 19 16 16 15 13 14 18 21 23 24
Wind_Direction
238 237 240 238 244 246 249 251 258 262 269 279 278 280 284 290 293 298 300 303 306 309 316 317 319 319 318 317 312 307 304 306 304 302 300 296 293 287 283 277 272 268 266 263
239 238 236 236 240 243 246 249 253 258 263 268 276 279 283 285 290 295 298 300 300 304 309 311 311 311 311 312 310 308 305 300 298 295 295 296 294 292 290 286 283 278 273 268
240 242 241 239 239 244 245 247 251 255 258 262 267 274 277 280 290 293 295 297 299 302 304 305 305 306 306 307 308 308 305 301 295 291 291 290 290 291 291 291 290 287 283 277
241 241 242 243 243 244 246 246 248 252 257 262 266 268 271 276 281 286 288 291 295 300 300 299 302 303 303 304 304 303 303 302 299 295 292 288 290 291 291 288 286 285 284 283
238 240 242 241 243 244 247 248 248 252 255 259 261 266 271 274 277 280 284 287 290 294 297 296 298 299 300 299 301 300 301 302 302 303 300 296 289 285 285 285 287 285 283 282
237 238 240 240 243 245 244 244 247 250 253 257 261 262 266 271 275 279 279 284 289 292 293 294 295 297 298 298 299 299 302 303 303 302 304 305 303 304 299 294 289 291 289 289
233 238 240 240 241 241 244 246 245 251 253 257 259 264 268 272 274 276 280 282 287 289 290 294 295 298 298 297 300 301 298 299 301 301 301 300 298 298 297 298 299 295 292 290
232 234 235 236 241 241 243 244 248 251 254 256 258 261 264 268 273 277 279 283 283 288 290 293 294 294 292 293 294 294 296 297 298 298 296 295 297 296 297 295 294 289 289 287
232 233 233 234 238 241 243 243 244 248 252 256 258 260 263 266 268 273 278 283 286 288 290 291 293 292 291 292 293 295 295 294 293 292 294 295 295 297 293 293 294 290 287 287
234 236 236 237 239 239 242 244 245 247 251 255 258 261 262 264 268 273 278 281 285 288 289 291 290 290 290 292 294 295 297 294 293 294 295 293 294 298 294 293 290 290 289 289
234 236 242 238 240 241 242 245 247 248 251 253 255 259 263 267 270 274 278 281 283 285 287 289 289 290 293 293 293 294 293 293 294 295 293 292 294 293 293 291 290 288 286 284
246 232 236 241 243 244 244 245 247 250 253 256 259 262 265 269 272 274 274 277 280 282 285 287 289 290 291 293 293 296 295 296 296 293 296 295 293 293 291 291 290 288 287 286
231 230 234 236 240 243 246 247 249 250 252 254 258 261 264 265 267 270 273 276 278 281 284 284 287 291 291 291 293 281 278 282 291 285 289 293 291 291 292 291 291 289 287 285
241 238 234 238 240 244 245 248 251 253 255 256 258 259 261 264 266 270 272 274 277 279 281 285 288 288 289 289 290 288 284 286 290 290 290 292 293 293 293 293 292 290 287 285
242 240 236 236 239 242 246 248 250 253 255 257 259 261 263 264 266 268 270 272 275 278 280 280 278 280 281 285 287 289 290 290 290 292 293 293 294 295 297 297 298 298 297 295
238 239 238 240 242 244 246 248 249 254 256 257 258 260 262 265 267 268 270 272 273 274 275 278 279 279 281 286 286 287 289 290 291 292 292 293 294 297 300 302 303 303 300 299
240 244 245 244 245 246 249 252 253 256 258 259 260 260 262 263 265 267 269 273 274 276 277 279 280 282 283 286 286 288 289 290 290 290 289 290 292 295 296 299 305 304 301 304
239 242 247 252 251 252 253 256 256 257 258 259 258 259 261 264 267 269 269 271 273 275 278 278 281 282 284 286 288 290 292 291 291 290 289 287 287 289 290 294 299 294 297 303
244 247 250 252 253 255 257 258 258 257 259 261 262 262 263 265 267 269 272 274 274 274 275 278 282 283 284 287 292 293 294 295 293 291 287 285 289 288 287 290 290 285 290 296
239 242 245 247 250 252 254 255 256 259 262 262 262 263 266 267 268 269 270 273 274 278 279 280 283 288 290 293 296 298 300 300 298 293 286 283 282 281 279 273 273 275 287 272
233 237 242 245 248 249 250 252 255 257 259 260 262 265 268 269 271 273 274 275 278 279 279 283 287 290 295 297 301 310 309 309 312 308 294 282 276 271 261 263 264 272 271 265
229 234 239 244 248 250 252 255 258 261 265 267 269 269 269 270 272 277 273 272 278 284 284 286 289 295 299 307 314 312 314 319 325 324 315 300 281 266 251 254 262 269 245 258
225 231 237 242 248 253 257 261 264 265 265 264 266 266 268 270 272 276 280 280 283 284 286 291 295 300 305 311 316 314 316 318 332 329 332 325 289 244 246 258 269 253 247 265
234 242 248 251 255 259 265 264 258 250 245 251 260 268 276 276 280 279 278 280 283 286 289 292 295 299 304 314 319 316 322 330 326 333 333 341 325 279 261 267 262 249 257 259
240 243 248 254 254 238 237 238 244 243 250 257 274 283 288 284 278 277 276 278 280 281 283 288 292 297 302 316 310 296 309 322 337 344 342 342 342 320 293 283 272 263 273 266
236 226 211 213 230 246 249 261 262 264 262 275 282 280 281 280 278 274 273 274 275 277 281 284 287 292 301 312 300 278 299 300 298 304 294 288 294 294 295 291 285 276 271 268
189 220 233 235 248 262 269 275 278 276 276 278 279 281 280 280 279 279 277 276 274 273 273 275 280 285 293 302 288 278 282 286 286 275 272 275 284 277 277 280 279 274 277 279
Height
10946 10952 10955 10964 10963 10966 10972 10975 10974 10974 10971 10965 10971 10973 10974 10975 10976 10976 10978 10976 10972 10969 10968 10967 10964 10962 10961 10959 10957 10954 10952 10949 10947 10946 10946 10944 10943 10940 10939 10938 10937 10937 10936 10937
10929 10935 10941 10948 10949 10955 10961 10964 10966 10965 10965 10961 10957 10960 10966 10963 10967 10966 10966 10968 10966 10963 10960 10959 10957 10955 10953 10952 10949 10946 10943 10942 10939 10937 10935 10933 10931 10929 10927 10926 10924 10924 10924 10923
10916 10921 10923 10930 10944 10946 10948 10953 10954 10954 10954 10951 10956 10951 10956 10953 10955 10955 10954 10956 10957 10955 10953 10951 10949 10947 10944 10942 10940 10937 10934 10931 10930 10929 10927 10924 10922 10920 10917 10913 10910 10908 10908 10908
10899 10896 10905 10927 10927 10932 10933 10939 10940 10940 10942 10942 10945 10945 10944 10946 10949 10949 10945 10946 10948 10948 10945 10942 10940 10937 10935 10932 10929 10925 10921 10920 10918 10917 10915 10913 10911 10908 10905 10902 10899 10896 10893 10891
10868 10880 10896 10905 10910 10913 10922 10925 10928 10927 10928 10930 10934 10934 10933 10936 10935 10938 10937 10936 10936 10938 10935 10933 10930 10926 10922 10918 10917 10913 10909 10906 10903 10901 10899 10896 10893 10894 10892 10889 10887 10884 10882 10877
10854 10861 10873 10894 10893 10897 10900 10908 10913 10913 10917 10918 10921 10923 10923 10923 10924 10924 10925 10925 10924 10924 10923 10919 10920 10916 10910 10904 10902 10898 10895 10891 10888 10884 10881 10879 10876 10874 10872 10871 10870 10866 10864 10862
10838 10844 10861 10876 10867 10874 10878 10904 10892 10899 10899 10906 10907 10911 10912 10913 10910 10908 10907 10914 10911 10912 10909 10907 10905 10903 10898 10890 10887 10884 10881 10878 10874 10870 10868 10866 10860 10858 10855 10852 10847 10845 10843 10840
10821 10828 10839 10844 10850 10860 10860 10876 10884 10885 10885 10892 10896 10897 10901 10902 10896 10891 10889 10898 10896 10897 10896 10893 10892 10890 10884 10881 10877 10874 10871 10867 10864 10860 10853 10851 10848 10842 10837 10835 10833 10828 10824 10820
10802 10812 10813 10822 10827 10840 10848 10860 10865 10868 10871 10877 10880 10887 10887 10887 10885 10880 10876 10878 10874 10876 10879 10876 10875 10873 10867 10864 10863 10859 10856 10853 10848 10841 10835 10831 10826 10823 10819 10813 10809 10805 10803 10800
10784 10787 10798 10812 10816 10828 10832 10839 10849 10853 10858 10861 10864 10870 10869 10871 10871 10868 10865 10863 10858 10858 10857 10857 10856 10853 10851 10848 10847 10844 10840 10832 10826 10821 10816 10810 10805 10801 10798 10794 10789 10783 10778 10775
10755 10781 10785 10793 10802 10813 10821 10827 10832 10837 10840 10843 10848 10850 10853 10855 10857 10855 10851 10847 10843 10840 10838 10835 10834 10833 10831 10831 10825 10819 10815 10809 10804 10801 10796 10791 10786 10781 10775 10769 10764 10759 10751 10749
10741 10758 10763 10788 10793 10798 10806 10811 10815 10820 10824 10827 10833 10836 10838 10840 10838 10839 10835 10832 10828 10823 10821 10817 10815 10810 10807 10807 10802 10800 10791 10784 10778 10776 10770 10767 10764 10758 10750 10745 10739 10732 10721 10714
10724 10747 10759 10768 10773 10781 10789 10794 10800 10806 10810 10813 10818 10821 10823 10823 10822 10819 10816 10814 10812 10810 10808 10801 10796 10788 10788 10787 10782 10787 10781 10771 10761 10754 10746 10744 10738 10729 10724 10716 10710 10702 10695 10687
10716 10734 10744 10753 10763 10768 10773 10779 10783 10789 10793 10795 10799 10801 10802 10803 10803 10803 10801 10798 10795 10792 10789 10787 10779 10776 10769 10764 10761 10757 10752 10746 10741 10731 10726 10719 10710 10702 10695 10690 10682 10673 10666 10662
10713 10723 10734 10742 10747 10755 10760 10763 10768 10771 10775 10777 10781 10781 10784 10784 10783 10782 10781 10778 10776 10775 10770 10769 10766 10761 10752 10746 10741 10734 10728 10724 10718 10708 10701 10694 10687 10680 10674 10666 10657 10651 10644 10638
10705 10714 10721 10728 10734 10739 10743 10747 10752 10757 10758 10761 10763 10764 10765 10764 10763 10762 10761 10760 10759 10756 10753 10750 10745 10740 10735 10730 10723 10714 10707 10704 10695 10686 10679 10674 10669 10665 10659 10652 10644 10637 10631 10626
10695 10705 10707 10713 10717 10723 10727 10730 10739 10739 10741 10743 10744 10745 10745 10745 10744 10743 10743 10741 10739 10738 10735 10731 10724 10723 10717 10708 10701 10695 10687 10680 10676 10670 10663 10657 10653 10650 10648 10641 10634 10627 10621 10617
10685 10688 10693 10699 10703 10709 10714 10715 10720 10724 10724 10725 10725 10726 10728 10728 10728 10728 10726 10724 10722 10720 10719 10712 10707 10703 10697 10690 10684 10677 10670 10663 10657 10652 10647 10641 10638 10637 10635 10630 10625 10620 10615 10612
10673 10677 10681 10686 10690 10695 10698 10701 10702 10704 10706 10708 10710 10711 10711 10711 10711 10710 10709 10708 10705 10703 10702 10695 10691 10687 10681 10675 10670 10663 10653 10647 10638 10632 10626 10622 10621 10622 10620 10618 10615 10612 10610 10606
10662 10666 10670 10674 10677 10681 10684 10686 10688 10689 10692 10693 10693 10693 10695 10695 10695 10694 10693 10693 10687 10687 10685 10680 10675 10672 10668 10664 10656 10648 10639 10627 10616 10607 10602 10602 10603 10603 10604 10604 10604 10604 10602 10600
10655 10658 10661 10663 10666 10670 10672 10674 10675 10676 10677 10679 10680 10680 10681 10681 10680 10679 10678 10679 10671 10673 10670 10667 10665 10662 10657 10651 10644 10634 10621 10610 10599 10589 10584 10583 10586 10588 10590 10593 10595 10596 10594 10594
10647 10650 10653 10655 10657 10659 10661 10662 10663 10665 10666 10666 10667 10667 10667 10667 10666 10666 10665 10665 10661 10660 10658 10656 10653 10650 10645 10638 10630 10620 10610 10601 10593 10585 10579 10577 10577 10579 10582 10586 10588 10588 10588 10588
10643 10645 10647 10649 10651 10653 10654 10654 10655 10654 10654 10654 10654 10654 10655 10655 10656 10657 10653 10653 10651 10649 10646 10644 10640 10637 10632 10628 10620 10611 10604 10597 10592 10586 10580 10577 10576 10577 10579 10581 10582 10582 10583 10583
10638 10640 10643 10644 10645 10645 10645 10644 10644 10644 10645 10646 10646 10647 10646 10647 10648 10645 10645 10640 10638 10636 10634 10632 10629 10627 10622 10619 10611 10606 10601 10596 10591 10587 10582 10580 10578 10578 10578 10578 10578 10578 10579 10578
10633 10635 10636 10636 10637 10637 10638 10639 10639 10639 10639 10639 10639 10639 10638 10636 10637 10633 10629 10629 10627 10625 10623 10621 10619 10616 10613 10609 10606 10602 10599 10595 10591 10588 10585 10582 10579 10577 10576 10575 10575 10575 10574 10573
10628 10629 10630 10632 10634 10635 10635 10634 10634 10634 10633 10632 10629 10627 10626 10623 10621 10619 10617 10615 10614 10612 10611 10609 10608 10605 10604 10601 10598 10596 10594 10592 10589 10586 10582 10579 10577 10575 10573 10572 10571 10570 10568 10567
10627 10628 10629 10630 10631 10631 10630 10629 10629 10627 10624 10624 10617 10614 10612 10608 10606 10603 10601 10599 10597 10597 10598 10597 10596 10595 10594 10594 10592 10590 10588 10587 10584 10581 10578 10576 10574 10572 10569 10567 10565 10563 10562 10560